Regional Weather Roundup
Issued by NWS

Home | Current Version | Previous Version | Text Only | Print | Product List | Glossary On
Versions: 1 2 3 4 5 6 7 8 9 10 11 12 13 14 15 16 17 18 19 20 21 22 23 24 25 26 27 28 29 30 31 32 33 34 35 36 37 38 39 40 41 42 43 44 45 46 47 48 49 50
000
ASUS43 KLOT 242109
RWRIL

ILLINOIS REGIONAL WEATHER ROUNDUP
NATIONAL WEATHER SERVICE CHICAGO/ROMEOVILLE IL
400 PM CDT MON JUL 24 2017

NOTE: "FAIR" INDICATES FEW OR NO CLOUDS BELOW 12,000 FEET WITH NO
SIGNIFICANT WEATHER AND/OR OBSTRUCTIONS TO VISIBILITY.

* THESE STATIONS ARE NOT UNDER NWS QUALITY CONTROL. THEY ALSO MAY NOT
  REPORT WEATHER SUCH AS PRECIPITATION OR FOG.

ILZ001-002-007-009-015-016-024-242200-
NORTHWEST ILLINOIS

CITY           SKY/WX    TMP DP  RH WIND       PRES   REMARKS
MOLINE         CLOUDY    76  63  64 E9        30.04F
STERLING*      PTSUNNY   76  63  64 E10       30.05F
SAVANNA*       PTSUNNY   75  60  59 E6        30.05F
$$

ILZ003-004-008-010-011-017-018-242200-
NORTH CENTRAL ILLINOIS

CITY           SKY/WX    TMP DP  RH WIND       PRES   REMARKS
ROCKFORD       MOSUNNY   78  59  51 E10       30.07S
FREEPORT*      PTSUNNY   72  58  62 E3        30.08S
ROCHELLE*      MOSUNNY   74  61  62 NE10      30.06F
DE KALB*       MOSUNNY   74  61  63 NE6       30.07S
PERU*          SUNNY    N/A N/A N/A NE9       30.05S
$$

ILZ005-006-012>014-019>023-242200-
NORTHEAST ILLINOIS

CITY           SKY/WX    TMP DP  RH WIND       PRES   REMARKS
CHICAGO-OHARE  MOSUNNY   73  57  57 N12       30.05S
CHICAGO-MIDWAY MOSUNNY   73  58  59 NE12      30.05R
AURORA         MOSUNNY   75  59  57 NE7       30.06R
LANSING*       PTSUNNY   72  58  60 NE10      30.05S
JOLIET*        SUNNY     76  61  58 E9        30.05S
WAUKEGAN       MOSUNNY   69  60  73 N9G18     30.06S
DUPAGE AIRPORT SUNNY     74  61  63 NE10      30.05S
WHEELING       PTSUNNY   70  60  70 NE12      30.07F
MORRIS*        MOSUNNY   75  60  59 NE3       30.04S
ROMEOVILLE*    MOSUNNY   75  57  53 NE9       30.05S
NORTHERLY ISL    N/A     70  58  65 N7          N/A
$$

LMZ740>746-242200-
SOUTHERN LAKE MICHIGAN

STATION/POSITION SKY/WX   TEMP    WIND        PRES    VSBY  WAVE
                          AIR SEA DIR/SP/G                  HT/PER
                          (F)     (DEG/KT/KT) (MB)    (MI)  (FT/S)
SOUTHERN BUOY              67 70   10/ 12/ 14 1017.6          4/ 7
WILMETTE HARBOR            67 72   10/ 12/ 14   N/A           4/ 6
HARRISON CRIB              68      20/ 12/ 14   N/A
BURNHAM HARBOR             70                   N/A
CALUMET HARBOR             70     350/  8/ 12 1017.4R
BURNS HARBOR               69      10/ 10/ 13 1018.3R
MICHIGAN CITY              68      10/  9/ 11   N/A
MICHIGAN CITY 6N           69 74   30/  8/ 12   N/A           5/ 6
ST. JOSEPH                 69 73   30/ 12/ 14 1017.4          4/ 6
$$

ILZ025>027-034>036-040-047-049-050-058-095>099-242200-
WEST-CENTRAL ILLINOIS

CITY           SKY/WX    TMP DP  RH WIND       PRES   REMARKS
QUINCY         PTSUNNY   83  62  49 NE7       30.00S HX  84
GALESBURG*     PTSUNNY   73  65  74 E5        30.05S
MACOMB*        PTSUNNY   76  67  73 E10       30.05R
JACKSONVILLE*  CLOUDY    81  65  58 NE8       30.01S HX  83
PITTSFIELD*    MOSUNNY   85  68  55 NE8       30.01S HX  88
$$

ILZ028>032-037-038-041>044-048-051>054-059>061-242200-
CENTRAL ILLINOIS

CITY           SKY/WX    TMP DP  RH WIND       PRES   REMARKS
PONTIAC        PTSUNNY   77  66  69 N10       30.04R
BLOOMINGTON    PTSUNNY   78  66  66 NE12      30.04S HX  80
DECATUR        MOSUNNY   81  67  62 NE9       30.01S HX  83
PEORIA         CLOUDY    76  65  68 NE8       30.04S
LACON*         CLOUDY    77  65  66 NE6       30.03S
LINCOLN*       CLOUDY    78  69  72 NE8       30.02S HX  81
SPRINGFIELD    MOSUNNY   82  70  66 NE10      30.01S HX  86
TAYLORVILLE    CLOUDY    80  68  65 NE8       30.00S HX  83
$$

ILZ033-039-045-046-055>057-062-063-242200-
EAST-CENTRAL ILLINOIS

CITY           SKY/WX    TMP DP  RH WIND       PRES   REMARKS
CHAMPAIGN      MOSUNNY   82  67  60 NE8       30.02S HX  84
RANTOUL*       MOSUNNY   81  65  59 N10       30.02S HX  83
MATTOON        MOSUNNY   80  68  66 NE8       29.99S HX  83
PARIS*         PTSUNNY   82  69  64 NE9       30.01S HX  84
$$

ILZ079-100>102-242200-
SOUTHWEST ILLINOIS

CITY           SKY/WX    TMP DP  RH WIND       PRES   REMARKS
ALTON          MOSUNNY   84  68  58 VRB5      29.98S HX  87
BELLEVILLE     SUNNY     89  71  55 E5        29.97F HX  94
CAHOKIA*       MOSUNNY   88  66  48 NE9       29.95F HX  90
SPARTA*        PTSUNNY   87  67  52 N5        29.96F HX  89
$$

ILZ064>066-069>071-074>076-080>082-084>086-088>090-092>094-242200-
SOUTH-CENTRAL ILLINOIS

CITY           SKY/WX    TMP DP  RH WIND       PRES   REMARKS
CARBONDALE     SUNNY     91  72  53 VRB7      29.94F HX  98
CAIRO*         MOSUNNY   91  75  58 S6        29.91F HX 102
EFFINGHAM*     PTSUNNY   84  67  55 CALM      30.00R HX  87
MT. VERNON     MOSUNNY   88  69  53 VRB3      29.96S HX  92
CENTRALIA*     CLOUDY    85  71  62 CALM      29.96S HX  91
SALEM*         MOSUNNY   88  67  49 CALM      29.97S HX  91
METROPOLIS*    SUNNY     93  71  48 SW5       29.93F HX 100
$$

ILZ067-068-072-073-078-083-087-091-242200-
SOUTHEAST ILLINOIS

CITY           SKY/WX    TMP DP  RH WIND       PRES   REMARKS
LAWRENCEVILLE  MOSUNNY   86  68  54 VRB6      29.97S HX  89
FLORA*         MOSUNNY   89  68  50 NE9       29.97S HX  92
FAIRFIELD*     SUNNY     87  70  55 N5        29.94F HX  92
HARRISBURG*    MOSUNNY   91  69  49 N7        29.94S HX  96
ROBINSON*      MOSUNNY   83  68  61 CALM      29.98S HX  86
CARMI*         SUNNY     87  74  64 N8        29.94S HX  94
$$

ABBREVIATIONS USED IN REMARKS
   TC - TEMPERATURE IN CELSIUS
  WCI - WIND CHILL INDEX
   HX - HEAT INDEX
  VSB - VISIBILITY
$$





USA.gov is the U.S. government's official web portal to all federal, state and local government web resources and services.